Hourly Weather Multan

Today, 28 September, Tuesday

Time Temperature Precipitation Wind Pressure Humidity
00:00 +35°C° 0 mm 2 mps 743 mmHg 43%
01:00 +34°C° 0 mm 2 mps 743 mmHg 44%
02:00 +34°C° 0 mm 2 mps 743 mmHg 46%
03:00 +34°C° 0 mm 2 mps 743 mmHg 48%
04:00 +32°C° 0 mm 1 mps 743 mmHg 49%
05:00 +30°C° 0 mm 0 mps 743 mmHg 51%
06:00 +33°C° 0 mm 1 mps 744 mmHg 49%
07:00 +34°C° 0 mm 1 mps 744 mmHg 46%
08:00 +35°C° 0 mm 1 mps 745 mmHg 44%
09:00 +36°C° 0 mm 1 mps 745 mmHg 40%
10:00 +39°C° 0 mm 2 mps 745 mmHg 36%
11:00 +41°C° 0 mm 2 mps 745 mmHg 32%
12:00 +41°C° 0 mm 2 mps 744 mmHg 30%
13:00 +42°C° 0 mm 2 mps 743 mmHg 28%
14:00 +42°C° 0 mm 2 mps 742 mmHg 26%
15:00 +41°C° 0.1 mm 2 mps 742 mmHg 28%
16:00 +41°C° 0.1 mm 2 mps 742 mmHg 30%
17:00 +40°C° 0.1 mm 1 mps 742 mmHg 32%
18:00 +38°C° 0 mm 2 mps 742 mmHg 35%
19:00 +37°C° 0 mm 2 mps 743 mmHg 37%
20:00 +36°C° 0 mm 3 mps 743 mmHg 40%
21:00 +35°C° 0 mm 3 mps 743 mmHg 41%
22:00 +35°C° 0 mm 3 mps 743 mmHg 42%
23:00 +34°C° 0 mm 3 mps 743 mmHg 43%

Tomorrow, 29 September, Wednesday

Time Temperature Precipitation Wind Pressure Humidity
00:00 +34°C° 0 mm 2 mps 743 mmHg 44%
01:00 +34°C° 0 mm 2 mps 743 mmHg 45%
02:00 +32°C° 0 mm 1 mps 743 mmHg 46%
03:00 +32°C° 0 mm 1 mps 743 mmHg 46%
04:00 +32°C° 0 mm 1 mps 743 mmHg 46%
05:00 +32°C° 0 mm 1 mps 743 mmHg 46%
06:00 +33°C° 0 mm 1 mps 744 mmHg 44%
07:00 +34°C° 0 mm 1 mps 744 mmHg 43%
08:00 +35°C° 0 mm 1 mps 745 mmHg 41%
09:00 +37°C° 0 mm 1 mps 745 mmHg 38%
10:00 +39°C° 0 mm 1 mps 745 mmHg 35%
11:00 +41°C° 0 mm 1 mps 745 mmHg 32%
12:00 +42°C° 0 mm 2 mps 744 mmHg 29%
13:00 +43°C° 0 mm 2 mps 743 mmHg 26%
14:00 +44°C° 0 mm 3 mps 742 mmHg 23%
15:00 +44°C° 0 mm 3 mps 742 mmHg 23%
16:00 +44°C° 0 mm 3 mps 742 mmHg 24%
17:00 +43°C° 0 mm 3 mps 741 mmHg 24%
18:00 +42°C° 0 mm 3 mps 742 mmHg 26%
19:00 +40°C° 0 mm 3 mps 742 mmHg 28%
20:00 +38°C° 0 mm 2 mps 742 mmHg 30%
21:00 +38°C° 0 mm 2 mps 743 mmHg 32%
22:00 +37°C° 0 mm 2 mps 743 mmHg 34%
23:00 +36°C° 0 mm 2 mps 743 mmHg 37%

Day after tomorrow, 30 September, Thursday

Time Temperature Precipitation Wind Pressure Humidity
00:00 +36°C° 0 mm 3 mps 743 mmHg 39%
01:00 +35°C° 0 mm 3 mps 743 mmHg 42%
02:00 +35°C° 0 mm 3 mps 743 mmHg 44%
03:00 +34°C° 0 mm 2 mps 743 mmHg 46%
04:00 +34°C° 0 mm 2 mps 743 mmHg 47%
05:00 +34°C° 0 mm 2 mps 743 mmHg 49%
06:00 +35°C° 0 mm 2 mps 744 mmHg 47%
07:00 +36°C° 0 mm 2 mps 744 mmHg 44%
08:00 +37°C° 0 mm 2 mps 745 mmHg 42%
09:00 +38°C° 0 mm 2 mps 745 mmHg 38%
10:00 +40°C° 0 mm 2 mps 745 mmHg 35%
11:00 +41°C° 0 mm 2 mps 744 mmHg 31%
12:00 +42°C° 0 mm 2 mps 744 mmHg 28%
13:00 +43°C° 0 mm 2 mps 743 mmHg 25%
14:00 +45°C° 0 mm 2 mps 742 mmHg 23%
15:00 +43°C° 0 mm 2 mps 742 mmHg 25%
16:00 +42°C° 0 mm 2 mps 742 mmHg 26%
17:00 +41°C° 0 mm 2 mps 741 mmHg 28%
18:00 +40°C° 0 mm 3 mps 742 mmHg 31%
19:00 +40°C° 0 mm 4 mps 742 mmHg 34%
20:00 +38°C° 0 mm 4 mps 743 mmHg 36%
21:00 +38°C° 0 mm 4 mps 743 mmHg 39%
22:00 +37°C° 0 mm 4 mps 743 mmHg 42%
23:00 +36°C° 0 mm 3 mps 743 mmHg 44%

1 October, Friday

Time Temperature Precipitation Wind Pressure Humidity
00:00 +36°C° 0 mm 3 mps 743 mmHg 45%
01:00 +35°C° 0 mm 3 mps 743 mmHg 46%
02:00 +35°C° 0 mm 2 mps 743 mmHg 47%
03:00 +35°C° 0 mm 2 mps 743 mmHg 48%
04:00 +34°C° 0 mm 2 mps 743 mmHg 49%
05:00 +34°C° 0 mm 2 mps 743 mmHg 50%
06:00 +35°C° 0 mm 3 mps 743 mmHg 48%
07:00 +36°C° 0 mm 3 mps 744 mmHg 47%
08:00 +37°C° 0 mm 3 mps 744 mmHg 45%
09:00 +38°C° 0 mm 3 mps 744 mmHg 41%
10:00 +40°C° 0 mm 3 mps 744 mmHg 36%
11:00 +42°C° 0 mm 4 mps 744 mmHg 32%
12:00 +42°C° 0 mm 4 mps 743 mmHg 32%
13:00 +43°C° 0 mm 5 mps 743 mmHg 31%
14:00 +43°C° 0 mm 5 mps 742 mmHg 31%
15:00 +41°C° 0 mm 5 mps 742 mmHg 35%
16:00 +40°C° 0 mm 4 mps 742 mmHg 39%
17:00 +38°C° 0 mm 4 mps 742 mmHg 43%
18:00 +37°C° 0 mm 3 mps 742 mmHg 44%
19:00 +37°C° 0 mm 3 mps 742 mmHg 45%
20:00 +36°C° 0 mm 3 mps 742 mmHg 46%
21:00 +36°C° 0 mm 3 mps 743 mmHg 47%
22:00 +35°C° 0 mm 4 mps 743 mmHg 48%
23:00 +35°C° 0 mm 4 mps 743 mmHg 50%

2 October, Saturday

Time Temperature Precipitation Wind Pressure Humidity
00:00 +35°C° 0 mm 3 mps 742 mmHg 50%
01:00 +35°C° 0 mm 3 mps 742 mmHg 50%
02:00 +35°C° 0 mm 2 mps 742 mmHg 51%
03:00 +35°C° 0 mm 2 mps 742 mmHg 52%
04:00 +34°C° 0 mm 2 mps 742 mmHg 53%
05:00 +34°C° 0 mm 2 mps 742 mmHg 54%
06:00 +34°C° 0 mm 3 mps 743 mmHg 53%
07:00 +35°C° 0 mm 3 mps 743 mmHg 52%
08:00 +35°C° 0 mm 4 mps 744 mmHg 51%
09:00 +37°C° 0 mm 4 mps 744 mmHg 45%
10:00 +40°C° 0 mm 4 mps 743 mmHg 40%
11:00 +41°C° 0 mm 4 mps 743 mmHg 34%
12:00 +40°C° 0 mm 3 mps 743 mmHg 34%
13:00 +40°C° 0 mm 3 mps 742 mmHg 33%
14:00 +41°C° 0 mm 2 mps 742 mmHg 32%
15:00 +40°C° 0.1 mm 3 mps 742 mmHg 34%
16:00 +39°C° 0.1 mm 3 mps 741 mmHg 37%
17:00 +38°C° 0.1 mm 3 mps 741 mmHg 39%
18:00 +37°C° 0.1 mm 3 mps 742 mmHg 46%
19:00 +35°C° 0.1 mm 4 mps 742 mmHg 52%
20:00 +33°C° 0.1 mm 4 mps 742 mmHg 59%
21:00 +33°C° 0 mm 4 mps 742 mmHg 62%
22:00 +32°C° 0 mm 4 mps 742 mmHg 65%
23:00 +30°C° 0 mm 4 mps 742 mmHg 69%

3 October, Sunday

Time Temperature Precipitation Wind Pressure Humidity
00:00 +32°C° 0 mm 4 mps 742 mmHg 67%
01:00 +32°C° 0 mm 4 mps 742 mmHg 64%
02:00 +32°C° 0 mm 4 mps 742 mmHg 62%
03:00 +32°C° 0 mm 4 mps 742 mmHg 60%
04:00 +33°C° 0 mm 4 mps 742 mmHg 58%
05:00 +33°C° 0 mm 4 mps 741 mmHg 56%
06:00 +34°C° 0 mm 4 mps 742 mmHg 53%
07:00 +35°C° 0 mm 5 mps 742 mmHg 50%
08:00 +36°C° 0 mm 6 mps 743 mmHg 47%
09:00 +38°C° 0 mm 6 mps 743 mmHg 42%
10:00 +40°C° 0 mm 6 mps 743 mmHg 37%
11:00 +42°C° 0 mm 6 mps 743 mmHg 32%
12:00 +43°C° 0 mm 5 mps 742 mmHg 30%
13:00 +45°C° 0 mm 5 mps 741 mmHg 28%
14:00 +45°C° 0 mm 5 mps 740 mmHg 26%
15:00 +45°C° 0 mm 5 mps 740 mmHg 27%
16:00 +43°C° 0 mm 5 mps 740 mmHg 28%
17:00 +43°C° 0 mm 5 mps 740 mmHg 28%
18:00 +41°C° 0.1 mm 5 mps 740 mmHg 32%
19:00 +40°C° 0.1 mm 5 mps 741 mmHg 35%
20:00 +37°C° 0.1 mm 5 mps 741 mmHg 38%
21:00 +36°C° 0 mm 5 mps 741 mmHg 40%
22:00 +36°C° 0 mm 6 mps 741 mmHg 42%
23:00 +35°C° 0 mm 7 mps 741 mmHg 44%
Show more

We Need Your Consent

Meteoprog and our Service Providers may store and access personal data such as cookies, device identifiers or other similar technologies on your device and process such data to personalise content and ads, as well as provide social media features and to analyse the traffic.

  • Store and/or access information on your device

    Cookies, device identifiers or other information can be stored or accessed on your device for the purposes indicated above.

  • Personalised ads and content, ad and content measurement, audience insights, and products development

    Ads and content can be personalised based on a profile. More data can be added to better personalise ads and content. Ad and content performance can be measured. Insights about the audience who saw the ads and content can be derived. Such data can be used to develop or improve user’s experience, systems and software.

By clicking ‘I Agree’ you will allow the use of indicated cookies, device identifiers, web beacons or other similar technologies. Your settings can be changed in the browser on your device.

For certain purposes, legitimate interests may be relied on, rather than consent. You can read more about this in our Privacy and Cookie Policy.